TimeMST,TemperatureF,Dew PointF,Humidity,Sea Level PressureIn,VisibilityMPH,Wind Direction,Wind SpeedMPH,Gust SpeedMPH,PrecipitationIn,Events,Conditions,WindDirDegrees,DateUTC
12:53 AM,39.0,17.1,41,30.15,10.0,WSW,12.7,-,N/A,,Clear,240,2012-12-04 07:53:00
1:53 AM,36.0,17.1,46,30.17,10.0,WSW,12.7,-,N/A,,Clear,240,2012-12-04 08:53:00
2:53 AM,32.0,16.0,52,30.18,10.0,SW,10.4,-,N/A,,Clear,220,2012-12-04 09:53:00
3:53 AM,30.9,16.0,54,30.16,10.0,SW,9.2,-,N/A,,Clear,230,2012-12-04 10:53:00
4:53 AM,30.0,16.0,56,30.15,10.0,SSW,10.4,-,N/A,,Clear,200,2012-12-04 11:53:00
5:53 AM,33.1,17.1,52,30.13,10.0,WSW,10.4,-,N/A,,Clear,240,2012-12-04 12:53:00
6:53 AM,32.0,17.1,54,30.12,10.0,WSW,5.8,-,N/A,,Clear,240,2012-12-04 13:53:00
7:53 AM,32.0,19.0,59,30.12,10.0,West,4.6,-,N/A,,Scattered Clouds,280,2012-12-04 14:53:00
8:53 AM,32.0,19.0,59,30.12,10.0,Calm,Calm,-,N/A,,Overcast,0,2012-12-04 15:53:00
9:53 AM,39.0,19.9,46,30.07,10.0,WSW,5.8,-,N/A,,Overcast,250,2012-12-04 16:53:00
10:53 AM,37.4,21.2,52,30.01,10.0,ENE,3.5,-,N/A,,Overcast,60,2012-12-04 17:53:00
11:53 AM,37.9,19.9,48,30.04,10.0,Calm,Calm,-,N/A,,Overcast,0,2012-12-04 18:53:00
12:53 PM,45.0,23.0,42,30.01,10.0,Calm,Calm,-,N/A,,Mostly Cloudy,0,2012-12-04 19:53:00
1:53 PM,48.0,21.0,34,29.99,10.0,SW,5.8,-,N/A,,Partly Cloudy,230,2012-12-04 20:53:00
2:53 PM,48.9,23.0,36,29.98,10.0,SW,9.2,-,N/A,,Partly Cloudy,220,2012-12-04 21:53:00
3:53 PM,50.0,23.0,35,29.99,10.0,WSW,12.7,-,N/A,,Scattered Clouds,240,2012-12-04 22:53:00
4:53 PM,48.0,21.0,34,29.99,10.0,WSW,13.8,-,N/A,,Scattered Clouds,250,2012-12-04 23:53:00
5:53 PM,48.0,21.0,34,29.98,10.0,WSW,11.5,-,N/A,,Partly Cloudy,250,2012-12-05 00:53:00
6:53 PM,46.9,21.9,37,29.97,10.0,SW,8.1,-,N/A,,Clear,230,2012-12-05 01:53:00
7:53 PM,46.9,23.0,39,29.95,10.0,WSW,15.0,-,N/A,,Clear,250,2012-12-05 02:53:00
8:53 PM,46.9,21.0,36,29.94,10.0,WSW,13.8,-,N/A,,Clear,250,2012-12-05 03:53:00
9:53 PM,46.9,21.9,37,29.92,10.0,WSW,13.8,-,N/A,,Clear,250,2012-12-05 04:53:00
10:53 PM,45.0,21.9,40,29.92,10.0,SW,8.1,-,N/A,,Clear,230,2012-12-05 05:53:00
11:53 PM,45.0,23.0,42,29.90,10.0,WSW,10.4,-,N/A,,Clear,240,2012-12-05 06:53:00